Location: Caracas
(10.5033°N, 66.8422°W)
Time: 19:49:54
(UTC-04:00)

Vanguard 2 - All Passes

Search period start: 19 June 2018 00:00
Search period end: 29 June 2018 00:00
Orbit: 553 x 2939 km, 32.9° (Epoch: 19 June)

Date Brightness Start Highest point End Pass type
(mag) Time Alt. Az. Time Alt. Az. Time Alt. Az.
19 Jun - 01:00:54 10° SW 01:12:52 62° SSE 01:19:52 10° ENE night (unlit)
19 Jun - 03:14:40 10° W 03:22:04 33° NW 03:26:57 10° NNE visible
19 Jun - 09:48:49 10° NNW 09:52:32 23° NE 09:57:28 10° E daylight
19 Jun - 11:55:20 10° WNW 12:01:09 68° SSW 12:11:02 10° SE daylight
19 Jun - 14:05:45 10° WSW 14:12:13 22° SSW 14:21:10 10° SSE daylight
19 Jun - 21:01:28 10° S 21:05:18 11° SSE 21:08:53 10° SE visible
19 Jun - 23:07:35 10° SSW 23:19:50 31° SSE 23:28:16 10° E visible
20 Jun - 01:19:06 10° SW 01:31:08 86° SE 01:38:03 10° ENE visible
20 Jun - 03:34:14 10° W 03:40:08 22° NNW 03:44:23 10° NNE visible
20 Jun - 10:06:16 10° NNW 10:10:33 36° NE 10:16:47 10° E daylight
20 Jun - 12:13:40 10° WNW 12:19:29 45° SSW 12:28:57 10° SE daylight
20 Jun - 14:26:09 10° SW 14:31:13 15° SSW 14:37:29 10° S daylight
20 Jun - 21:16:11 10° S 21:24:52 16° SSE 21:32:18 10° SE visible
20 Jun - 23:24:59 10° SW 23:38:34 42° SSE 23:47:19 10° E night (unlit)
21 Jun - 01:37:39 10° WSW 01:49:16 69° NW 01:56:00 10° NE visible
21 Jun - 03:54:21 10° WNW 03:58:21 15° NNW 04:01:34 10° N visible
21 Jun - 10:23:57 10° NW 10:28:33 60° NE 10:35:37 10° ESE daylight
21 Jun - 12:32:24 10° W 12:37:59 30° SSW 12:46:28 10° SSE daylight
21 Jun - 21:32:34 10° SSW 21:44:07 22° SSE 21:53:20 10° ESE visible
21 Jun - 23:42:42 10° SW 23:57:07 56° SSE 00:05:56 10° ENE night (unlit)
22 Jun - 01:56:36 10° WSW 02:07:20 48° NW 02:13:48 10° NE visible
22 Jun - 04:15:45 10° NW 04:16:45 10° NNW 04:17:41 10° NNW visible
22 Jun - 08:36:09 10° N 08:38:18 14° NNE 08:40:39 10° ENE daylight
22 Jun - 10:41:53 10° WNW 10:46:37 81° SSW 10:54:03 10° SE daylight
22 Jun - 12:51:42 10° WSW 12:56:40 20° SSW 13:03:30 10° SSE daylight
22 Jun - 19:45:37 10° SSE 19:47:40 10° SSE 19:49:41 10° SSE visible
22 Jun - 21:49:30 10° SSW 22:03:08 30° SSE 22:13:19 10° E visible
23 Jun - 00:00:46 10° SW 00:15:31 75° SSE 00:24:16 10° ENE night (unlit)
23 Jun - 02:15:56 10° W 02:25:25 35° NW 02:31:28 10° NNE visible
23 Jun - 08:53:09 10° NNW 08:56:26 23° NNE 09:00:23 10° E daylight
23 Jun - 11:00:07 10° WNW 11:04:49 48° SSW 11:12:03 10° SE daylight
23 Jun - 13:12:08 10° SW 13:15:30 13° SSW 13:19:33 10° S daylight
23 Jun - 19:58:57 10° S 20:07:23 15° SSE 20:15:09 10° SE visible
23 Jun - 22:06:48 10° SSW 22:21:56 40° SSE 22:32:38 10° E visible
24 Jun - 00:19:09 10° WSW 00:33:46 83° NW 00:42:21 10° NE visible
24 Jun - 02:35:42 10° W 02:43:35 25° NNW 02:49:01 10° NNE visible
24 Jun - 09:10:40 10° NW 09:14:29 40° NE 09:19:25 10° ESE daylight
24 Jun - 11:18:43 10° W 11:23:10 29° SSW 11:29:37 10° SSE daylight
24 Jun - 20:15:06 10° SSW 20:26:44 21° SSE 20:36:56 10° ESE visible
24 Jun - 22:24:24 10° SW 22:40:34 52° SSE 22:51:28 10° ENE visible
25 Jun - 00:37:54 10° WSW 00:51:56 63° NW 01:00:18 10° NE visible
25 Jun - 02:55:51 10° WNW 03:01:55 18° NNW 03:06:28 10° NNE visible
25 Jun - 09:28:28 10° NW 09:32:30 76° NNE 09:37:58 10° ESE daylight
25 Jun - 11:37:57 10° WSW 11:41:42 18° SSW 11:46:37 10° SSE daylight
25 Jun - 20:31:53 10° SSW 20:45:47 28° SSE 20:57:26 10° E visible
25 Jun - 22:42:18 10° SW 22:59:04 68° SE 23:09:58 10° ENE visible
26 Jun - 00:57:03 10° WSW 01:10:05 48° NW 01:18:06 10° NE visible
26 Jun - 03:16:23 10° NW 03:20:27 14° NNW 03:23:47 10° N visible
26 Jun - 07:39:50 10° NNW 07:42:19 16° NNE 07:44:49 10° ENE daylight
26 Jun - 09:46:34 10° WNW 09:50:36 57° SSW 09:56:06 10° SE daylight
26 Jun - 11:58:53 10° SW 12:00:22 11° SSW 12:01:59 10° S daylight
26 Jun - 18:43:19 10° S 18:49:36 13° SSE 18:55:49 10° SE daylight
26 Jun - 20:49:03 10° SSW 21:04:38 37° SSE 21:17:07 10° E visible
26 Jun - 23:00:31 10° SW 23:17:26 86° SE 23:28:13 10° ENE visible
27 Jun - 01:16:36 10° W 01:28:18 36° NNW 01:35:50 10° NNE visible
27 Jun - 03:37:27 10° NNW 03:39:10 11° NNW 03:40:44 10° N visible
27 Jun - 07:57:05 10° NNW 08:00:31 27° NNE 08:04:07 10° E daylight
27 Jun - 10:05:04 10° W 10:08:48 30° SSW 10:13:45 10° SSE daylight
27 Jun - 18:58:40 10° S 19:09:00 18° SSE 19:19:02 10° ESE visible
27 Jun - 21:06:29 10° SW 21:23:17 48° SE 21:36:15 10° ENE visible
27 Jun - 23:19:03 10° WSW 23:35:42 76° NW 23:46:17 10° NE visible
28 Jun - 01:36:30 10° W 01:46:40 28° NNW 01:53:32 10° NNE visible
28 Jun - 08:14:46 10° NW 08:18:38 52° NNE 08:22:50 10° ESE daylight
28 Jun - 10:24:13 10° WSW 10:27:10 17° SSW 10:30:45 10° SSE daylight
28 Jun - 19:15:08 10° SSW 19:28:04 25° SSE 19:40:20 10° E visible
28 Jun - 21:24:12 10° SW 21:41:49 61° SE 21:54:59 10° ENE visible
